W6UA-13 Weather Reports


Display with metric or nautical units.
time (UTC)temp
F
wind
direction
speed
MPH
gust
MPH
rain 1hr
in
rain 24hr
in
rain mn
in
humidity
%
barometer
mb
20260503233443 62 243 7.0 14.0 0.00 0.00 0.00 60 1014.2
20260503231943 64 172 7.0 16.0 0.00 0.00 0.00 57 1014.3
20260503230443 64 234 6.0 14.0 0.00 0.00 0.00 54 1014.2
20260503224943 65 225 6.0 14.0 0.00 0.00 0.00 52 1014.2
20260503223443 66 224 5.0 10.0 0.00 0.00 0.00 53 1014.0
20260503221943 66 241 5.0 12.0 0.00 0.00 0.00 54 1014.0
20260503220443 65 180 5.0 10.0 0.00 0.00 0.00 53 1014.2
20260503214943 64 221 6.0 12.0 0.00 0.00 0.00 56 1014.3
20260503213443 65 212 5.0 10.0 0.00 0.00 0.00 56 1014.3
20260503211943 64 250 4.0 11.0 0.00 0.00 0.00 58 1014.2
20260503210443 65 232 4.0 11.0 0.00 0.00 0.00 58 1014.3
20260503204943 63 210 5.0 11.0 0.00 0.00 0.00 60 1014.4
20260503203444 63 224 6.0 11.0 0.00 0.00 0.00 60 1014.6
20260503201944 62 218 7.0 13.0 0.00 0.00 0.00 63 1014.7
20260503200444 64 199 5.0 14.0 0.00 0.00 0.00 60 1014.7
20260503194944 64 223 5.0 15.0 0.00 0.00 0.00 58 1014.8
20260503193444 64 205 5.0 12.0 0.00 0.00 0.00 56 1014.8
20260503191944 64 235 5.0 11.0 0.00 0.00 0.00 56 1014.8
20260503190444 65 207 3.0 9.0 0.00 0.00 0.00 54 1014.8
20260503184944 63 226 3.0 10.0 0.00 0.00 0.00 56 1014.8
20260503183444 62 276 3.0 6.0 0.00 0.00 0.00 55 1014.9
20260503181944 62 186 3.0 9.0 0.00 0.00 0.00 56 1014.9
20260503180444 61 217 4.0 9.0 0.00 0.00 0.00 57 1014.9
20260503174944 60 181 3.0 7.0 0.00 0.00 0.00 60 1014.9
20260503173444 60 138 3.0 5.0 0.00 0.00 0.00 64 1014.9
20260503171944 59 264 4.0 10.0 0.00 0.00 0.00 65 1014.8
20260503170444 59 304 4.0 10.0 0.00 0.00 0.00 71 1014.8
20260503150444 56 233 1.0 3.0 0.00 0.00 0.00 80 1013.7
20260503130444 54 359 0.0 0.0 0.00 0.00 0.00 83 1012.5
20260503110444 54 359 0.0 0.0 0.00 0.00 0.00 81 1012.3
20260503090445 55 359 0.0 2.0 0.00 0.00 0.00 81 1012.3
20260503080445 55 307 1.0 3.0 0.00 0.00 0.00 80 1013.1
20260503071945 55 351 0.0 0.0 0.00 0.00 0.00 80 1012.8
20260503070445 56 359 0.0 0.0 0.00 0.00 0.00 80 1012.7
20260503054945 55 316 1.0 2.0 0.00 0.00 0.00 81 1012.3
20260503053445 54 295 1.0 4.0 0.00 0.00 0.00 82 1012.3
20260503051945 54 295 0.0 2.0 0.00 0.00 0.00 82 1012.3
20260503050445 54 293 0.0 1.0 0.00 0.00 0.00 82 1012.2
20260503044945 54 336 0.0 2.0 0.00 0.00 0.00 82 1012.1
20260503043445 54 274 0.0 3.0 0.00 0.00 0.00 81 1012.0
20260503041945 55 272 0.0 2.0 0.00 0.00 0.00 81 1012.1
20260503040445 55 323 1.0 3.0 0.00 0.00 0.00 81 1012.1
20260503034945 55 345 1.0 2.0 0.00 0.00 0.00 80 1012.0
20260503033445 55 9 1.0 2.0 0.00 0.00 0.00 79 1011.9
20260503031945 56 338 0.0 2.0 0.00 0.00 0.00 79 1012.0
20260503030445 56 148 0.0 0.0 0.00 0.00 0.00 79 1011.8
20260503024945 57 256 1.0 4.0 0.00 0.00 0.00 78 1011.8
20260503023445 57 218 3.0 6.0 0.00 0.00 0.00 77 1011.7
20260503021945 58 214 4.0 12.0 0.00 0.00 0.00 74 1012.0
20260503020445 59 231 3.0 9.0 0.00 0.00 0.00 72 1012.2
20260503014945 60 227 4.0 11.0 0.00 0.00 0.00 70 1012.4
20260503013445 61 204 4.0 9.0 0.00 0.00 0.00 68 1012.6
20260503011945 62 189 4.0 9.0 0.00 0.00 0.00 67 1012.8
20260503010445 64 218 3.0 5.0 0.00 0.00 0.00 65 1012.8
20260503004945 64 285 4.0 10.0 0.00 0.00 0.00 64 1013.1
20260503003445 66 245 3.0 11.0 0.00 0.00 0.00 62 1013.0
20260503001945 65 174 4.0 9.0 0.00 0.00 0.00 63 1012.9
20260503000445 66 214 4.0 9.0 0.00 0.00 0.00 61 1012.8
20260502234945 67 194 3.0 8.0 0.00 0.00 0.00 61 1012.8